Ourzdine, Morocco

11:56 AM WEST on August 24, 2017 (GMT +0100)
Ourzdine

Weather History for 60230 - October, 2012

Change the Weather History Date:

Saturday, October 27, 2012

  Actual Average Record
Temperature  
Mean Temperature 66 °F -  
Max Temperature 71 °F 71 °F - ()
Min Temperature 60 °F 50 °F - ()
Growing Degree Days 16 (Base 50)    
Moisture  
Dew Point 58 °F    
Average Humidity 78    
Maximum Humidity 100    
Minimum Humidity 54    
Precipitation  
Precipitation 0.00 in 0.05 in - ()
Sea Level Pressure  
Sea Level Pressure 29.94 in    
Wind  
Wind Speed 6 mph ()    
Max Wind Speed 13 mph    
Max Gust Speed -    
Visibility 6.2 miles    
Events      
T = Trace of Precipitation, MM = Missing Value Source: Averaged Metar Reports

Daily Weather History Graph

Daily Weather History Graph

Search for Another Location

Airport or City:

Trip Planner

Search our weather history database for the weather conditions in past years. The results will help you decide how hot, cold, wet, or windy it might be!

Date:

Astronomy

Oct. 27, 2012 Rise Set
Actual Time 6:44 AM WET 5:47 PM WET
Civil Twilight 6:19 AM WET 6:11 PM WET
Nautical Twilight 5:50 AM WET 6:40 PM WET
Astronomical Twilight 5:22 AM WET 7:08 PM WET
Moon 4:21 PM WET (10/27) 4:32 AM WET (10/27)
Length of Visible Light 11h 52m
Length of Day
11h 02m
Waxing Gibbous, 95% of the Moon is Illuminated
Oct 27
Waxing Gibbous
Oct 29
Full
Nov 7
Last Quarter
Nov 13
New
Nov 20
First Quarter

Hourly Weather History & Observations

Time (WET) Temp. Dew Point Humidity Pressure Visibility Wind Dir Wind Speed Gust Speed Precip Events Conditions
12:00 AM 64 °F 61 °F 86% 29.91 in 6 mi West 6.9 mph - -   Partly Cloudy
12:00 AM 64.4 °F 60.8 °F 88% 29.95 in 6.2 mi West 6.9 mph - N/A   Scattered Clouds
2:30 AM 60.8 °F 59.0 °F 94% 29.92 in 6.2 mi Variable 2.3 mph - N/A   Scattered Clouds
3:00 AM 62 °F 60 °F 90% 29.88 in 6 mi SW 3.5 mph - -   Partly Cloudy
3:00 AM 62.6 °F 59.0 °F 88% 29.92 in 6.2 mi SW 3.5 mph - N/A   Scattered Clouds
3:30 AM 62.6 °F 59.0 °F 88% 29.92 in 6.2 mi SW 4.6 mph - N/A   Scattered Clouds
4:00 AM 62.6 °F 59.0 °F 88% 29.92 in 6.2 mi WSW 3.5 mph - N/A   Scattered Clouds
4:30 AM 62.6 °F 59.0 °F 88% 29.92 in 6.2 mi WSW 3.5 mph - N/A   Scattered Clouds
5:00 AM 62.6 °F 59.0 °F 88% 29.92 in 6.2 mi WSW 5.8 mph - N/A   Scattered Clouds
5:30 AM 62.6 °F 59.0 °F 88% 29.92 in 6.2 mi WSW 6.9 mph - N/A   Scattered Clouds
6:00 AM 62 °F 59 °F 88% 29.90 in 6 mi West 8.1 mph - -   Partly Cloudy
6:00 AM 62.6 °F 59.0 °F 88% 29.92 in 6.2 mi West 8.1 mph - N/A   Scattered Clouds
6:30 AM 62.6 °F 59.0 °F 88% 29.92 in 6.2 mi West 6.9 mph - N/A   Scattered Clouds
7:00 AM 60.8 °F 60.8 °F 100% 29.95 in 6.2 mi WSW 6.9 mph - N/A   Mostly Cloudy
7:30 AM 60.8 °F 60.8 °F 100% 29.95 in 6.2 mi SW 5.8 mph - N/A   Mostly Cloudy
8:00 AM 62.6 °F 59.0 °F 88% 29.95 in 6.2 mi SW 8.1 mph - N/A   Mostly Cloudy
8:30 AM 64.4 °F 59.0 °F 83% 29.95 in 6.2 mi SW 6.9 mph - N/A   Mostly Cloudy
9:00 AM 65 °F 59 °F 75% 29.93 in 6 mi West 5.8 mph - -   Unknown Precipitation
9:00 AM 66.2 °F 59.0 °F 78% 29.95 in 6.2 mi West 6.9 mph - N/A   Mostly Cloudy
9:30 AM 66.2 °F 57.2 °F 73% 29.95 in 6.2 mi West 9.2 mph - N/A   Scattered Clouds
10:00 AM 68.0 °F 59.0 °F 73% 29.95 in 6.2 mi West 10.4 mph - N/A   Scattered Clouds
10:30 AM 66.2 °F 60.8 °F 83% 29.95 in 6.2 mi WNW 11.5 mph - N/A   Scattered Clouds
11:00 AM 68.0 °F 59.0 °F 73% 29.95 in 6.2 mi West 12.7 mph - N/A   Scattered Clouds
11:30 AM 69.8 °F 57.2 °F 64% 29.95 in 6.2 mi West 11.5 mph - N/A   Scattered Clouds
12:00 PM 70 °F 57 °F 54% 29.90 in 6 mi West 9.2 mph - -   Unknown Precipitation
12:00 PM 69.8 °F 57.2 °F 64% 29.95 in 6.2 mi West 10.4 mph - N/A   Scattered Clouds
12:30 PM 71.6 °F 57.2 °F 60% 29.95 in 6.2 mi West 12.7 mph - N/A   Scattered Clouds
1:00 PM 71.6 °F 57.2 °F 60% 29.95 in 6.2 mi West 11.5 mph - N/A   Scattered Clouds
1:30 PM 69.8 °F 57.2 °F 64% 29.92 in 6.2 mi West 11.5 mph - N/A   Scattered Clouds
2:00 PM 69.8 °F 57.2 °F 64% 29.92 in 6.2 mi West 10.4 mph - N/A   Scattered Clouds
2:30 PM 69.8 °F 57.2 °F 64% 29.92 in 6.2 mi WNW 9.2 mph - N/A   Scattered Clouds
3:00 PM 69 °F 57 °F 58% 29.88 in 6 mi West 11.5 mph - -   Partly Cloudy
3:00 PM 69.8 °F 57.2 °F 64% 29.92 in 6.2 mi West 11.5 mph - N/A   Scattered Clouds
3:30 PM 69.8 °F 57.2 °F 64% 29.92 in 6.2 mi WNW 9.2 mph - N/A   Scattered Clouds
4:00 PM 69.8 °F 57.2 °F 64% 29.92 in 6.2 mi WNW 10.4 mph - N/A   Scattered Clouds
4:30 PM 68.0 °F 57.2 °F 68% - 6.2 mi West 12.7 mph - N/A   Scattered Clouds
5:00 PM 68.0 °F 57.2 °F 68% 29.95 in 6.2 mi West 9.2 mph - N/A   Scattered Clouds
5:30 PM 68.0 °F 57.2 °F 68% 29.95 in 6.2 mi West 8.1 mph - N/A   Scattered Clouds
6:00 PM 67 °F 57 °F 63% 29.90 in 6 mi West 4.6 mph - -   Partly Cloudy
6:00 PM 66.2 °F 57.2 °F 73% 29.95 in 6.2 mi West 5.8 mph - N/A   Scattered Clouds
6:30 PM 64.4 °F 57.2 °F 77% 29.95 in 6.2 mi West 4.6 mph - N/A   Scattered Clouds
7:00 PM 64.4 °F 57.2 °F 77% 29.95 in 6.2 mi WSW 4.6 mph - N/A   Scattered Clouds
7:30 PM 64.4 °F 57.2 °F 77% 29.98 in 6.2 mi WSW 5.8 mph - N/A   Scattered Clouds
8:00 PM 62.6 °F 55.4 °F 77% 29.98 in 6.2 mi West 3.5 mph - N/A   Scattered Clouds
8:30 PM 62.6 °F 55.4 °F 77% 29.98 in 6.2 mi WSW 4.6 mph - N/A   Scattered Clouds
9:00 PM 61 °F 56 °F 78% 29.96 in 6 mi West 3.5 mph - -   Scattered Clouds
9:00 PM 60.8 °F 55.4 °F 82% 29.98 in 6.2 mi West 3.5 mph - N/A   Scattered Clouds
9:30 PM 60.8 °F 57.2 °F 88% 29.98 in 6.2 mi West 3.5 mph - N/A   Scattered Clouds
10:00 PM 62.6 °F 57.2 °F 82% 29.98 in 6.2 mi WSW 3.5 mph - N/A   Scattered Clouds
10:30 PM 60.8 °F 57.2 °F 88% 30.01 in 6.2 mi WSW 4.6 mph - N/A   Scattered Clouds
11:00 PM 60.8 °F 57.2 °F 88% 30.01 in 6.2 mi SW 4.6 mph - N/A   Scattered Clouds
11:30 PM 60.8 °F 57.2 °F 88% 30.01 in 6.2 mi SW 4.6 mph - N/A   Scattered Clouds